| time (UTC) | temp F | wind direction | speed knots | gust knots | rain 1hr in | rain 24hr in | rain mn in | humidity % | barometer mb |
| 20260506060108 | 75 | 248 | 2.6 | 0.0 | 0.00 | 0.00 | 0.29 | 9 | |
| 20260506051107 | 75 | 293 | 0.9 | 0.0 | 0.00 | 0.00 | 0.29 | 9 | |
| 20260506050107 | 75 | 293 | 0.9 | 0.0 | 0.00 | 0.00 | 0.29 | 9 | |
| 20260506045107 | 75 | 270 | 1.7 | 0.0 | 0.00 | 0.00 | 0.29 | 9 | |
| 20260506044108 | 75 | 270 | 0.9 | 0.0 | 0.00 | 0.00 | 0.29 | 9 | |
| 20260506043107 | 76 | 270 | 0.9 | 0.0 | 0.00 | 0.00 | 0.29 | 9 | |
| 20260506042108 | 76 | 248 | 0.0 | 0.0 | 0.00 | 0.00 | 0.29 | 9 | |
| 20260506041107 | 76 | 270 | 0.0 | 0.0 | 0.00 | 0.00 | 0.29 | 9 | |
| 20260506040107 | 76 | 293 | 1.7 | 0.0 | 0.00 | 0.00 | 0.29 | 9 | |
| 20260506035108 | 76 | 270 | 0.9 | 0.0 | 0.00 | 0.00 | 0.29 | 9 | |
| 20260506034108 | 76 | 248 | 0.9 | 0.0 | 0.00 | 0.00 | 0.29 | 8 | |
| 20260506033108 | 76 | 270 | 1.7 | 0.0 | 0.00 | 0.00 | 0.29 | 8 | |
| 20260506032106 | 77 | 270 | 1.7 | 0.0 | 0.00 | 0.00 | 0.29 | 8 | |
| 20260506031107 | 77 | 270 | 0.9 | 0.0 | 0.00 | 0.00 | 0.29 | 8 | |
| 20260506025107 | 77 | 270 | 0.9 | 0.0 | 0.00 | 0.00 | 0.29 | 8 | |
| 20260506024109 | 77 | 248 | 0.0 | 0.0 | 0.00 | 0.00 | 0.29 | 8 | |
| 20260506023108 | 77 | 270 | 0.0 | 0.0 | 0.00 | 0.00 | 0.29 | 8 | |
| 20260506022108 | 78 | 248 | 0.0 | 0.0 | 0.00 | 0.00 | 0.29 | 8 | |
| 20260506021107 | 78 | 248 | 0.0 | 0.0 | 0.00 | 0.00 | 0.29 | 8 | |
| 20260506020107 | 78 | 270 | 0.9 | 0.0 | 0.00 | 0.00 | 0.29 | 8 | |
| 20260506015107 | 78 | 270 | 0.0 | 0.0 | 0.00 | 0.00 | 0.29 | 8 | |
| 20260506014108 | 79 | 225 | 0.0 | 0.0 | 0.00 | 0.00 | 0.29 | 8 | |
| 20260506013108 | 79 | 248 | 0.9 | 0.0 | 0.00 | 0.00 | 0.29 | 8 | |
| 20260506012107 | 80 | 270 | 1.7 | 0.0 | 0.00 | 0.00 | 0.29 | 8 | |
| 20260506011107 | 80 | 270 | 0.9 | 0.0 | 0.00 | 0.00 | 0.29 | 7 | |
| 20260506010107 | 81 | 270 | 1.7 | 0.0 | 0.00 | 0.00 | 0.29 | 7 | |
| 20260506005107 | 81 | 293 | 1.7 | 0.0 | 0.00 | 0.00 | 0.29 | 7 | |
| 20260506004107 | 82 | 270 | 1.7 | 0.0 | 0.00 | 0.00 | 0.29 | 7 | |
| 20260506003107 | 82 | 293 | 1.7 | 0.0 | 0.00 | 0.00 | 0.29 | 7 | |
| 20260506002108 | 82 | 225 | 0.9 | 0.0 | 0.00 | 0.00 | 0.29 | 7 | |
| 20260506001108 | 82 | 270 | 0.0 | 0.0 | 0.00 | 0.00 | 0.29 | 7 | |
| 20260506000107 | 83 | 0 | 1.7 | 0.0 | 0.00 | 0.00 | 0.29 | 7 | |
| 20260505235107 | 83 | 270 | 0.9 | 0.0 | 0.00 | 0.00 | 0.29 | 7 | |
| 20260505234107 | 83 | 248 | 1.7 | 0.0 | 0.00 | 0.00 | 0.29 | 7 | |
| 20260505233107 | 83 | 293 | 1.7 | 0.0 | 0.00 | 0.00 | 0.29 | 7 | |
| 20260505232107 | 84 | 180 | 0.9 | 0.0 | 0.00 | 0.00 | 0.29 | 7 | |
| 20260505231108 | 84 | 338 | 0.9 | 0.0 | 0.00 | 0.00 | 0.29 | 7 | |
| 20260505230108 | 84 | 270 | 1.7 | 0.0 | 0.00 | 0.00 | 0.29 | 7 | |
| 20260505225107 | 84 | 270 | 3.5 | 0.0 | 0.00 | 0.00 | 0.29 | 7 | |
| 20260505224108 | 84 | 270 | 1.7 | 0.0 | 0.00 | 0.00 | 0.29 | 7 | |
| 20260505223108 | 85 | 270 | 1.7 | 0.0 | 0.00 | 0.00 | 0.29 | 7 | |
| 20260505222108 | 85 | 315 | 1.7 | 0.0 | 0.00 | 0.00 | 0.29 | 7 | |
| 20260505221108 | 86 | 270 | 0.9 | 0.0 | 0.00 | 0.00 | 0.29 | 7 | |
| 20260505220107 | 87 | 203 | 0.0 | 0.0 | 0.00 | 0.00 | 0.29 | 6 | |
| 20260505215107 | 87 | 338 | 0.9 | 0.0 | 0.00 | 0.00 | 0.29 | 7 | |
| 20260505214107 | 87 | 248 | 1.7 | 0.0 | 0.00 | 0.00 | 0.29 | 6 | |
| 20260505213107 | 88 | 338 | 2.6 | 0.0 | 0.00 | 0.00 | 0.29 | 6 | |
| 20260505212108 | 87 | 23 | 1.7 | 0.0 | 0.00 | 0.00 | 0.29 | 6 | |
| 20260505211108 | 87 | 270 | 1.7 | 0.0 | 0.00 | 0.00 | 0.29 | 6 | |
| 20260505210108 | 88 | 270 | 0.9 | 0.0 | 0.00 | 0.00 | 0.29 | 6 | |
| 20260505205107 | 89 | 293 | 2.6 | 0.0 | 0.00 | 0.00 | 0.29 | 6 | |
| 20260505204108 | 89 | 270 | 0.9 | 0.0 | 0.00 | 0.00 | 0.29 | 6 | |
| 20260505203107 | 88 | 248 | 0.9 | 0.0 | 0.00 | 0.00 | 0.29 | 6 | |
| 20260505202107 | 88 | 270 | 1.7 | 0.0 | 0.00 | 0.00 | 0.29 | 6 | |
| 20260505201108 | 88 | 0 | 1.7 | 0.0 | 0.00 | 0.00 | 0.29 | 6 | |
| 20260505200107 | 87 | 270 | 1.7 | 0.0 | 0.00 | 0.00 | 0.29 | 6 | |
| 20260505195107 | 88 | 23 | 2.6 | 0.0 | 0.00 | 0.00 | 0.29 | 6 | |
| 20260505194107 | 87 | 270 | 3.5 | 0.0 | 0.00 | 0.00 | 0.29 | 6 | |
| 20260505193108 | 87 | 203 | 0.9 | 0.0 | 0.00 | 0.00 | 0.29 | 6 | |
| 20260505192108 | 86 | 315 | 0.9 | 0.0 | 0.00 | 0.00 | 0.29 | 6 | |
| 20260505191107 | 85 | 248 | 0.9 | 0.0 | 0.00 | 0.00 | 0.29 | 7 | |
| 20260505190108 | 86 | 315 | 2.6 | 0.0 | 0.00 | 0.00 | 0.29 | 7 | |
| 20260505185107 | 84 | 135 | 1.7 | 0.0 | 0.00 | 0.00 | 0.29 | 7 | |
| 20260505184107 | 83 | 315 | 2.6 | 0.0 | 0.00 | 0.00 | 0.29 | 7 | |
| 20260505183107 | 83 | 315 | 1.7 | 0.0 | 0.00 | 0.00 | 0.29 | 7 | |
| 20260505182106 | 82 | 293 | 2.6 | 0.0 | 0.00 | 0.00 | 0.29 | 7 | |
| 20260505181108 | 81 | 270 | 2.6 | 0.0 | 0.00 | 0.00 | 0.29 | 7 | |
| 20260505180107 | 81 | 0 | 1.7 | 0.0 | 0.00 | 0.00 | 0.29 | 7 | |
| 20260505175107 | 79 | 293 | 1.7 | 0.0 | 0.00 | 0.00 | 0.29 | 7 | |
| 20260505174107 | 78 | 338 | 1.7 | 0.0 | 0.00 | 0.00 | 0.29 | 8 | |
| 20260505173109 | 77 | 23 | 0.9 | 0.0 | 0.00 | 0.00 | 0.29 | 8 | |
| 20260505172107 | 77 | 315 | 0.0 | 0.0 | 0.00 | 0.00 | 0.29 | 8 | |
| 20260505171107 | 76 | 248 | 1.7 | 0.0 | 0.00 | 0.00 | 0.29 | 8 | |
| 20260505170108 | 75 | 270 | 2.6 | 0.0 | 0.00 | 0.00 | 0.29 | 8 | |
| 20260505165108 | 75 | 315 | 0.9 | 0.0 | 0.00 | 0.00 | 0.29 | 8 | |
| 20260505164107 | 75 | 315 | 1.7 | 0.0 | 0.00 | 0.00 | 0.29 | 8 | |
| 20260505163108 | 74 | 45 | 0.0 | 0.0 | 0.00 | 0.00 | 0.29 | 8 | |
| 20260505162107 | 74 | 90 | 1.7 | 0.0 | 0.00 | 0.00 | 0.29 | 8 | |
| 20260505161108 | 74 | 338 | 1.7 | 0.0 | 0.00 | 0.00 | 0.29 | 8 | |
| 20260505160108 | 74 | 270 | 0.9 | 0.0 | 0.00 | 0.00 | 0.29 | 8 | |
| 20260505153108 | 73 | 270 | 0.9 | 0.0 | 0.00 | 0.00 | 0.29 | 8 | |
| 20260505152110 | 73 | 270 | 1.7 | 0.0 | 0.00 | 0.00 | 0.29 | 8 | |
| 20260505151108 | 73 | 45 | 1.7 | 0.0 | 0.00 | 0.00 | 0.29 | 9 | |
| 20260505150107 | 72 | 270 | 1.7 | 0.0 | 0.00 | 0.00 | 0.29 | 9 | |
| 20260505140107 | 71 | 0 | 1.7 | 0.0 | 0.00 | 0.00 | 0.29 | 9 | |
| 20260505130107 | 70 | 315 | 1.7 | 0.0 | 0.00 | 0.00 | 0.29 | 9 | |
| 20260505124108 | 70 | 293 | 0.0 | 0.0 | 0.00 | 0.00 | 0.29 | 9 | |
| 20260505123107 | 70 | 0 | 0.9 | 0.0 | 0.00 | 0.00 | 0.29 | 9 | |
| 20260505122107 | 70 | 293 | 0.9 | 0.0 | 0.00 | 0.00 | 0.29 | 9 | |
| 20260505121107 | 70 | 270 | 0.9 | 0.0 | 0.00 | 0.00 | 0.29 | 9 | |
| 20260505120107 | 70 | 270 | 0.0 | 0.0 | 0.00 | 0.00 | 0.29 | 9 | |
| 20260505115107 | 70 | 293 | 0.9 | 0.0 | 0.00 | 0.00 | 0.29 | 9 | |
| 20260505114108 | 70 | 293 | 1.7 | 0.0 | 0.00 | 0.00 | 0.29 | 9 | |
| 20260505113107 | 70 | 68 | 1.7 | 0.0 | 0.00 | 0.00 | 0.29 | 9 | |
| 20260505112106 | 70 | 203 | 1.7 | 0.0 | 0.00 | 0.00 | 0.29 | 9 | |
| 20260505111107 | 70 | 293 | 0.9 | 0.0 | 0.00 | 0.00 | 0.29 | 9 | |
| 20260505110108 | 70 | 315 | 3.5 | 0.0 | 0.00 | 0.00 | 0.29 | 9 | |
| 20260505102107 | 70 | 338 | 3.5 | 0.0 | 0.00 | 0.00 | 0.29 | 9 | |
| 20260505101107 | 70 | 270 | 1.7 | 0.0 | 0.00 | 0.00 | 0.29 | 9 | |
| 20260505100108 | 70 | 270 | 0.0 | 0.0 | 0.00 | 0.00 | 0.29 | 9 | |
| 20260505095107 | 70 | 270 | 1.7 | 0.0 | 0.00 | 0.00 | 0.29 | 9 | |
| 20260505094107 | 70 | 270 | 0.9 | 0.0 | 0.00 | 0.00 | 0.29 | 9 | |
| 20260505093108 | 70 | 338 | 1.7 | 0.0 | 0.00 | 0.00 | 0.29 | 9 | |
| 20260505092107 | 70 | 270 | 1.7 | 0.0 | 0.00 | 0.00 | 0.29 | 9 | |
| 20260505091107 | 70 | 270 | 1.7 | 0.0 | 0.00 | 0.00 | 0.29 | 9 | |
| 20260505090109 | 70 | 270 | 0.0 | 0.0 | 0.00 | 0.00 | 0.29 | 9 | |
| 20260505085107 | 70 | 270 | 2.6 | 0.0 | 0.00 | 0.00 | 0.29 | 9 | |
| 20260505084107 | 70 | 293 | 1.7 | 0.0 | 0.00 | 0.00 | 0.29 | 9 | |
| 20260505083107 | 70 | 315 | 1.7 | 0.0 | 0.00 | 0.00 | 0.29 | 8 | |
| 20260505082106 | 70 | 293 | 3.5 | 0.0 | 0.00 | 0.00 | 0.29 | 8 | |
| 20260505081107 | 70 | 315 | 1.7 | 0.0 | 0.00 | 0.00 | 0.29 | 8 | |
| 20260505080107 | 70 | 23 | 2.6 | 0.0 | 0.00 | 0.00 | 0.29 | 8 | |
| 20260505075107 | 71 | 225 | 1.7 | 0.0 | 0.00 | 0.00 | 0.29 | 8 | |
| 20260505074108 | 71 | 270 | 1.7 | 0.0 | 0.00 | 0.00 | 0.29 | 8 | |
| 20260505073107 | 71 | 270 | 1.7 | 0.0 | 0.00 | 0.00 | 0.29 | 8 | |
| 20260505072107 | 71 | 270 | 1.7 | 0.0 | 0.00 | 0.00 | 0.29 | 8 | |
| 20260505071107 | 71 | 293 | 2.6 | 0.0 | 0.00 | 0.00 | 0.29 | 8 | |
| 20260505070107 | 71 | 338 | 1.7 | 0.0 | 0.00 | 0.00 | 0.29 | 8 | |
| 20260505065107 | 71 | 248 | 3.5 | 0.0 | 0.00 | 0.00 | 0.29 | 8 | |
| 20260505064107 | 71 | 270 | 0.9 | 0.0 | 0.00 | 0.00 | 0.29 | 8 | |
| 20260505063107 | 71 | 90 | 1.7 | 0.0 | 0.00 | 0.00 | 0.29 | 8 | |
| 20260505062107 | 71 | 45 | 1.7 | 0.0 | 0.00 | 0.00 | 0.29 | 8 | |
| 20260505061107 | 71 | 315 | 2.6 | 0.0 | 0.00 | 0.00 | 0.29 | 8 |